Regional Weather Roundup
Issued by NWS

Current Version | Previous Version | Text Only | Print | Product List | Glossary On
Versions: 1 2 3 4 5 6 7 8 9 10 11 12 13 14 15 16 17 18 19 20 21 22 23 24 25 26 27 28 29 30 31 32 33 34 35 36 37 38 39 40 41 42 43 44 45 46 47 48 49 50
000
ASUS44 KFWD 231315
RWRTX
NORTH TEXAS HOURLY WEATHER ROUNDUP
NATIONAL WEATHER SERVICE FORT WORTH TX
700 AM CST SUN NOV 23 2014

NOTE: "FAIR" INDICATES FEW OR NO CLOUDS BELOW 12,000 FEET WITH NO
SIGNIFICANT WEATHER AND/OR OBSTRUCTIONS TO VISIBILITY.

TXZ118-119-231400-
DALLAS/FORT WORTH METROPLEX

CITY           SKY/WX    TMP DP  RH WIND       PRES   REMARKS
DFW AIRPORT    PTCLDY    51  51 100 S8        29.58F
DALLAS LOVE    PTCLDY    55  55 100 S3        29.59S FOG
FTW MEACHAM    CLEAR     53  51  93 S7        29.57F
DAL-EXECUTIVE  CLEAR     56  54  93 S3        29.58S FOG
FTW-ALLIANCE   CLEAR     52  51  97 S5        29.57S
FTW-SPINKS     CLEAR     54  52  94 S8        29.60S
ARLINGTON      CLEAR     53  50  89 S5        29.60R
ADDISON        CLOUDY    57  55  94 S7        29.59R FOG
MESQUITE       FOG       55  55 100 SE5       29.61  VSB 1/2
LANCASTER      CLOUDY    55  54  94 SW5       29.61S FOG
$$

TXZ091>094-102>105-117-120-121-131>134-231400-
NORTH CENTRAL TEXAS

CITY           SKY/WX    TMP DP  RH WIND       PRES   REMARKS
SHRMAN/DENISON CLOUDY    58  58 100 S9        29.59S
GAINESVILLE    CLOUDY    52  51  99 SE8       29.57F FOG
BOWIE          CLEAR     52  51  98 S6        29.53F
BRIDGEPORT     CLEAR     47  47 100 S5        29.56F
DECATUR        CLEAR     54  52  94 S14       29.55F
DENTON         CLEAR     52  52 100 SE7       29.56F
MCKINNEY       CLOUDY    57  57 100 S7        29.59R FOG
GREENVILLE     CLOUDY    59  55  88 S3        29.60R
ROCKWALL       CLOUDY    56  56 100 S8        29.59R FOG
TERRELL        MOCLDY    58  56  93 S6        29.60R
WAXAHACHIE     CLEAR     53  53 100 SW3       29.61R FOG
CLEBURNE       CLEAR     52  52 100 S7        29.61F
GRANBURY       CLEAR     55  52  91 SE6       29.60S
$$

TXZ083>090-098>101-113>116-127>130-139>142-154-155-231400-
WESTERN NORTH TEXAS

CITY           SKY/WX    TMP DP  RH WIND       PRES   REMARKS
WICHITA FALLS  CLEAR     49  49 100 S14       29.48F
WF-KICKAPOO    CLEAR     48  48 100 S10       29.50F
VERNON         PTCLDY    48  46  93 S8        29.48F
ABILENE        CLEAR     50  45  83 SW10      29.60F
ABILENE-DYESS  CLEAR     49  40  69 S3        29.58F
BRECKENRIDGE   CLEAR     54  48  80 SW9       29.56F
GRAHAM         CLEAR     50  50  99 S5        29.53F
MINERAL WELLS  CLEAR    N/A N/A N/A SE8       29.56F FOG
STEPHENVILLE   CLOUDY    49  47  93 S3        29.62F VSB 1/2
COMANCHE       CLEAR     52  51  96 SW9       29.61S
BROWNWOOD      CLEAR     46  46 100 SE5       29.64S
COLEMAN        CLEAR     52  45  78 W12       29.63S
BRADY          CLEAR     46  45  93 SW6       29.65S
$$

TXZ143>147-156>162-174-175-231400-
CENTRAL TEXAS

CITY           SKY/WX    TMP DP  RH WIND       PRES   REMARKS
WACO           CLEAR     53  52  96 SW8       29.63R
WACO-TSTC      CLEAR     55  55 100 S6        29.63
WACO-MCGREGOR  CLEAR     52  46  82 SW5       29.64S
HILLSBORO      CLEAR     51  50  95 S5        29.63R FOG
CORSICANA      CLOUDY    59  57  93 SW10      29.63R FOG
MEXIA          CLOUDY    58  57  97 SW9       29.63R
HEARNE         CLOUDY    58  57  96 SW5       29.67R
CAMERON        CLOUDY    59  58  96 SW7       29.66R
TEMPLE         CLOUDY    52  46  82 SE5       29.64R VSB 1/4
KILLEEN        CLEAR     54  53  94 SW9       29.64S
KILLEEN-SKYLRK CLEAR     52  46  82 S6        29.62S
FORT HOOD      CLEAR     55  52  89 S5        29.64R
GATESVILLE     CLEAR     54  54 100 CALM      29.65F
LAMPASAS       CLEAR     51  50  97 SW3       29.64S
$$

TXZ095>097-106>112-122>126-135>138-148>153-164>167-231400-
EAST TEXAS

CITY           SKY/WX    TMP DP  RH WIND       PRES   REMARKS
PARIS          CLOUDY    57  55  94 CALM      29.60F
SULPHUR SPRNGS CLOUDY    58  58 100 CALM      29.61F
MOUNT PLEASANT CLOUDY    59  59  99 CALM      29.62F
MINEOLA        CLOUDY    59  59 100 CALM      29.60S
TYLER          CLOUDY    60  58  92 CALM      29.59F
LONGVIEW       LGT RAIN  62  59  90 CALM      29.60R FOG
MARSHALL       CLOUDY    60  57  92 CALM      29.62S
ATHENS         CLOUDY    57  57 100 SW3       29.60S FOG
PALESTINE      LGT RAIN  60  60 100 S3        29.63S
JACKSONVILLE   CLOUDY    62  61  96 CALM      29.64S
HENDERSON      LGT RAIN  62  62 100 CALM      29.63S
NACOGDOCHES    CLOUDY    63  61  94 SW7       29.65R
LUFKIN         LGT RAIN  65  61  87 SW9       29.65R
$$

SUPPLEMENTAL OBSERVATIONS (CENTRAL)

CITY           SKY/WX    TMP DP  RH WIND       PRES   REMARKS
CADDO GRASSLND   N/A     57  54  88 S7          N/A
PAT MAYSE LAKE   N/A     57  55  94 SE5         N/A
PALESTINE        N/A     61  59  94 SW2         N/A
LAKE LIMESTONE   N/A     59  55  88 SW6         N/A
MCGREGOR         N/A     52  50  93 SW2         N/A
TEMPLE           N/A     54  52  94 SW2         N/A
$$

SUPPLEMENTAL OBSERVATIONS (WEST)

CITY           SKY/WX    TMP DP  RH WIND       PRES   REMARKS
MILLERS CREEK    N/A     50  45  81 SW14        N/A
POSSUM KINGDOM   N/A     52  46  82 SW7         N/A
LBJ GRASSLAND    N/A     54  48  82 SE10        N/A
GRANBURY         N/A     54  48  82 SE7         N/A
COMANCHE         N/A     52  50  93 SW10        N/A
HAMBY            N/A     48  45  87 S8          N/A
IVIE RESERVOIR   N/A     48  43  81 N5          N/A
COLORADO BEND    N/A     54  50  87 SW8         N/A
$$

SUPPLEMENTAL OBSERVATIONS (EAST)

CITY           SKY/WX    TMP DP  RH WIND       PRES   REMARKS
TEXARKANA        N/A     61  59  94 CALM        N/A
CADDO LAKE       N/A    N/A N/A N/A W1          N/A
LUFKIN           N/A     63  59  88 MISG        N/A
N SABINE NF      N/A     61  59  94 MISG        N/A
$$

SUPPLEMENTAL OBSERVATIONS ARE A COLLECTION OF AUTOMATED INSTRUMENTS
THAT ARE MAINTAINED BY A VARIETY OF FEDERAL AND STATE AGENCIES.
CERTAIN ELEMENTS...SUCH AS HUMIDITY VALUES AND SUSTAINED WIND
SPEEDS...MAY BE APPROXIMATED.




USA.gov is the U.S. government's official web portal to all federal, state and local government web resources and services.